Location: Heidgraben
(53.7081°N, 9.6576°E)
Time: 08:42:59
(UTC+00:00)

Cosmos 1515 Rocket - Pass Details

Date: 05 July 2020
Orbit: 607 x 629 km, 82.5° (Epoch: 14 August)

Event Time Altitude Azimuth Distance (km) Brightness Sun altitude
Rises 22:33:35 0° 352° (N) 2,882 9.1 -12.8°
Reaches altitude 10° 22:35:54 10° 359° (N) 1,974 7.6 -12.9°
Maximum altitude 22:40:06 45° 72° (ENE) 843 4.3 -13.0°
Enters shadow 22:43:15 17° 140° (SE) 1,585 5.1 -13.1°
